TimeCST,TemperatureF,Dew PointF,Humidity,Sea Level PressureIn,VisibilityMPH,Wind Direction,Wind SpeedMPH,Gust SpeedMPH,PrecipitationIn,Events,Conditions,WindDirDegrees,DateUTC
12:53 AM,37.0,19.0,48,30.20,10.0,North,3.5,-,N/A,,Clear,360,2013-02-01 06:53:00
1:53 AM,34.0,19.0,54,30.19,10.0,ENE,3.5,-,N/A,,Clear,60,2013-02-01 07:53:00
2:53 AM,32.0,19.0,59,30.19,10.0,North,4.6,-,N/A,,Clear,350,2013-02-01 08:53:00
3:53 AM,30.0,18.0,61,30.19,10.0,NNE,4.6,-,N/A,,Clear,20,2013-02-01 09:53:00
4:53 AM,28.0,18.0,66,30.19,10.0,ENE,3.5,-,N/A,,Clear,60,2013-02-01 10:53:00
5:53 AM,27.0,17.1,66,30.21,10.0,North,4.6,-,N/A,,Clear,360,2013-02-01 11:53:00
6:53 AM,26.1,17.1,69,30.21,10.0,North,4.6,-,N/A,,Clear,360,2013-02-01 12:53:00
7:53 AM,25.0,17.1,72,30.22,10.0,North,4.6,-,N/A,,Clear,360,2013-02-01 13:53:00
8:53 AM,33.8,19.4,56,30.23,10.0,NNE,3.5,-,N/A,,Clear,20,2013-02-01 14:53:00
9:53 AM,46.9,19.0,33,30.21,10.0,SE,5.8,-,N/A,,Clear,130,2013-02-01 15:53:00
10:53 AM,53.6,19.4,26,30.23,10.0,SSE,6.9,-,N/A,,Clear,160,2013-02-01 16:53:00
11:53 AM,59.0,19.0,21,30.18,10.0,South,10.4,16.1,N/A,,Clear,180,2013-02-01 17:53:00
12:53 PM,61.0,18.0,19,30.15,10.0,South,10.4,-,N/A,,Clear,190,2013-02-01 18:53:00
1:53 PM,64.0,17.1,16,30.10,10.0,SSW,9.2,-,N/A,,Clear,200,2013-02-01 19:53:00
2:53 PM,66.0,16.0,15,30.07,10.0,SSW,11.5,-,N/A,,Clear,210,2013-02-01 20:53:00
3:53 PM,68.0,16.0,14,30.05,10.0,WSW,9.2,17.3,N/A,,Clear,240,2013-02-01 21:53:00
4:53 PM,68.0,16.0,14,30.04,10.0,SW,5.8,-,N/A,,Clear,220,2013-02-01 22:53:00
5:53 PM,66.0,17.1,15,30.04,10.0,SW,4.6,-,N/A,,Clear,220,2013-02-01 23:53:00
6:53 PM,57.9,17.1,20,30.06,-9999.0,South,3.5,-,N/A,,Clear,170,2013-02-02 00:53:00
7:53 PM,55.0,18.0,23,30.09,-9999.0,SSE,9.2,-,N/A,,Clear,160,2013-02-02 01:53:00
8:53 PM,48.9,18.0,29,30.09,-9999.0,SSE,9.2,-,N/A,,Clear,160,2013-02-02 02:53:00
9:53 PM,48.0,18.0,30,30.09,-9999.0,ESE,3.5,-,N/A,,Clear,120,2013-02-02 03:53:00
10:53 PM,42.1,19.9,41,30.10,-9999.0,Calm,Calm,-,N/A,,Clear,0,2013-02-02 04:53:00
11:53 PM,42.1,19.9,41,30.09,-9999.0,Calm,Calm,-,N/A,,Clear,0,2013-02-02 05:53:00